[[{"header":{"parameterUnit":"m.s-1","parameterCategory":1,"la1":30.2991,"la2":30.254,"lo1":-89.0895,"lo2":-89.0444,"dy":0.0017,"dx":0.0017,"nx":28,"ny":28,"refTime":"2024-07-31T09:00:00:Z","depth":0,"parameterNumber":2,"parameterNumberName":"U-component_of_WINDS"},"data":[0,0,0,0,0,0,0,0,0,0,0,0,0,0,0,0,0,0,0,0,0,0,0,0,0,0,0,0,0,0,0,0,0,0,0,0,0,0,0,0,0,0,0,0,0,0,0,0,0,0,0,0,0,0,0,0,0,0,2.0356,2.0358,0,2.0492,2.0494,2.0495,2.0513,2.0511,2.051,2.0509,2.0647,2.0652,2.0657,0,0,0,0,0,0,0,0,0,0,0,0,0,2.011,2.0114,2.0356,2.0358,2.036,2.0492,2.0494,2.0496,2.0513,2.0511,2.051,2.0508,2.0646,2.0652,2.0657,0,0,0,0,0,0,0,0,0,0,0,0,0,2.0228,2.0116,2.0356,2.0384,2.0388,2.0492,2.0494,2.0496,2.0513,2.0511,2.0509,2.0508,2.0644,2.0651,2.0658,2.0743,0,0,2.0681,2.0684,0,0,0,0,0,0,0,0,2.0222,2.0237,2.0378,2.0382,2.0387,2.0484,2.0458,2.0579,2.0514,2.0466,2.0509,2.0507,2.0594,2.0606,2.0635,2.0749,2.0755,2.0681,2.0686,2.0689,2.0691,0,0,0,0,0,0,0,2.0213,2.0232,2.041,2.038,2.0386,2.0389,2.0404,2.0481,2.0539,2.047,2.0471,2.0487,2.0596,2.0628,2.0639,2.0757,2.0681,2.0688,2.0692,2.0695,2.0945,2.0947,0,0,0,0,0,0,2.02,2.0225,2.0406,2.0414,2.0298,2.0396,2.0412,2.0454,2.0539,2.055,2.0489,2.0488,2.0617,2.063,2.0644,2.0747,2.0689,2.0696,2.07,2.0943,2.0946,2.0948,0,0,0,0,0,0,2.0195,2.0216,2.04,2.032,2.0344,2.0402,2.0449,2.0458,2.049,2.0553,2.0563,2.0511,2.0616,2.0633,2.0718,2.0752,2.0699,2.0706,2.094,2.0944,2.0947,2.0954,0,0,0,0,0,0,2.0188,2.0214,2.0247,2.032,2.0348,2.0472,2.0452,2.0462,2.0503,2.0503,2.0576,2.0587,2.0616,2.0707,2.0725,2.0761,2.0712,2.0938,2.0942,2.0946,2.0951,2.0957,2.0963,0,0,0,0,0,2.0179,2.0244,2.0249,2.0271,2.0391,2.0474,2.049,2.0522,2.0506,2.0539,2.0579,2.0584,2.0745,2.0715,2.0736,2.0775,2.0936,2.0941,2.0946,2.0949,2.0956,2.0963,0,0,0,0,0,0,2.0173,2.0254,2.026,2.0351,2.0406,2.0477,2.052,2.0529,2.0589,2.0586,2.0623,2.064,2.0722,2.0757,2.0722,2.086,2.0839,2.0848,2.0834,2.0842,2.0847,2.0837,2.0718,0,0,0,0,0,2.0183,2.0244,2.0312,2.0385,2.0412,2.0461,2.0499,2.0519,2.0577,2.06,2.0646,2.0702,2.0765,2.0805,2.0867,2.0957,2.0972,2.0994,2.0999,2.1004,2.1011,2.1059,2.1069,2.0965,2.0965,2.0965,0,0,2.0203,2.0255,2.0291,2.0386,2.043,2.0492,2.0481,2.0547,2.0594,2.061,2.0692,2.0728,2.0792,2.0879,2.0919,2.0911,2.1043,2.101,2.1013,2.1018,2.1066,2.1075,2.1084,2.0968,2.0967,2.0967,0,0,2.0271,2.0317,2.0382,2.0427,2.0494,2.0527,2.0542,2.0612,2.0636,2.0719,2.0732,2.0788,2.0896,2.0941,2.0978,2.1061,2.1068,2.1081,2.111,2.1157,2.1165,2.1173,2.1201,2.1211,2.1088,2.1088,2.1088,0,2.0287,2.0381,2.0415,2.0481,2.0521,2.0539,2.0605,2.0647,2.0731,2.0758,2.0747,2.0882,2.0927,2.1023,2.1044,2.1074,2.1092,2.1072,2.1161,2.1169,2.1177,2.1204,2.1215,2.1089,2.1089,2.1089,2.1089,0,2.0397,2.0462,2.0507,2.0588,2.0633,2.0699,2.0742,2.0784,2.08,2.0833,2.0916,2.097,2.1042,2.1067,2.1084,2.1166,2.1158,2.1154,2.1133,2.1187,2.1213,2.1224,2.109,2.109,2.109,2.1089,0,0,2.0465,2.0563,2.0578,2.0614,2.069,2.0741,2.0807,2.0877,2.0912,2.0969,2.1024,2.1115,2.1111,2.1153,2.1175,2.1216,2.1277,2.1207,2.1209,2.1216,2.1369,2.137,2.1382,2.1282,2.1284,2.1286,2.1363,0,2.054,2.0659,2.0691,2.0791,2.085,2.0868,2.0925,2.0977,2.101,2.1065,2.11,2.1163,2.1154,2.118,2.1221,2.126,2.1307,2.1255,2.1332,2.1335,2.1314,2.1396,2.1398,2.1469,2.1373,2.1375,2.1377,0,2.0644,2.0703,2.0809,2.0875,2.0902,2.0953,2.1019,2.1072,2.1131,2.1151,2.1197,2.1215,2.1283,2.126,2.1354,2.1318,2.1351,2.1375,2.1378,2.1386,2.1358,2.1404,2.1492,2.1502,2.1393,2.1392,2.1391,0,2.0681,2.0787,2.0864,2.0894,2.0974,2.1009,2.1044,2.1101,2.1141,2.1199,2.1225,2.129,2.1325,2.1375,2.1409,2.1389,2.15,2.148,2.1518,2.1517,2.1539,2.1537,2.1632,2.1563,2.1563,2.1563,2.1563,0,2.0761,2.0825,2.0881,2.0928,2.1,2.1035,2.1105,2.114,2.119,2.1244,2.1263,2.1313,2.1356,2.1411,2.1438,2.1511,2.1527,2.1545,2.1551,2.1543,2.154,2.1564,2.156,2.1566,2.1565,2.1565,2.1564,0,2.0814,2.0855,2.0939,2.1007,2.1026,2.1075,2.1134,2.1179,2.1212,2.128,2.1297,2.1349,2.1415,2.1454,2.1538,2.1556,2.1636,2.1641,2.1616,2.1618,2.1654,2.1649,2.1766,2.1783,2.1704,2.1705,2.1705,0,2.0862,2.0911,2.0985,2.1022,2.1057,2.1117,2.1157,2.1194,2.1236,2.1306,2.1343,2.141,2.1465,2.1569,2.1614,2.1677,2.1683,2.172,2.1693,2.1682,2.1682,2.1678,2.1682,2.1724,2.1725,2.1725,2.1726,0,2.0941,2.0959,2.1017,2.1082,2.113,2.1182,2.1235,2.1264,2.131,2.1355,2.1422,2.1465,2.155,2.1616,2.1683,2.1718,2.1729,2.1734,2.1746,2.1737,2.1719,2.1728,2.1627,2.1731,2.173,2.173,2.173,2.1729,2.0992,2.1036,2.1095,2.1158,2.1202,2.125,2.1296,2.1334,2.1391,2.1463,2.1481,2.1552,2.1608,2.1699,2.1736,2.1791,2.1785,2.1803,2.1807,2.181,2.181,2.1712,2.1804,2.1804,2.1803,2.1803,2.1803,0,2.1072,2.111,2.1168,2.1241,2.129,2.1297,2.1355,2.1396,2.1458,2.1509,2.1563,2.164,2.1704,2.1753,2.1818,2.1853,2.1859,2.1868,2.1866,2.1873,2.1813,2.1795,2.1862,2.1862,2.1862,2.1862,2.1862,2.1862,2.1119,2.1193,2.1217,2.1313,2.1351,2.142,2.1452,2.1496,2.1538,2.1623,2.1676,2.1707,2.1758,2.1827,2.1885,2.1898,2.192,2.1928,2.1941,2.1884,2.1878,2.1871,2.1855,2.1933,2.1933,2.1997,2.1998,2.1998]},{"header":{"parameterUnit":"m.s-1","parameterCategory":1,"la1":30.2991,"la2":30.254,"lo1":-89.0895,"lo2":-89.0444,"dy":0.0017,"dx":0.0017,"nx":28,"ny":28,"refTime":"2024-07-31T09:00:00:Z","depth":0,"parameterNumber":3,"parameterNumberName":"V-component_of_WINDS"},"data":[0,0,0,0,0,0,0,0,0,0,0,0,0,0,0,0,0,0,0,0,0,0,0,0,0,0,0,0,0,0,0,0,0,0,0,0,0,0,0,0,0,0,0,0,0,0,0,0,0,0,0,0,0,0,0,0,0,0,3.9349,3.9349,0,3.9344,3.9344,3.9344,3.9263,3.9261,3.9259,3.9257,3.9253,3.9254,3.9256,0,0,0,0,0,0,0,0,0,0,0,0,0,3.9287,3.9288,3.9349,3.9349,3.9349,3.9344,3.9344,3.9344,3.9263,3.9261,3.9258,3.9256,3.9252,3.9254,3.9256,0,0,0,0,0,0,0,0,0,0,0,0,0,3.9301,3.9289,3.9349,3.9308,3.9304,3.9344,3.9344,3.9344,3.9264,3.9261,3.9258,3.9255,3.9251,3.9254,3.9257,3.9336,0,0,3.9265,3.9266,0,0,0,0,0,0,0,0,3.93,3.9304,3.9314,3.9311,3.9307,3.9301,3.9321,3.9341,3.9265,3.9279,3.9257,3.9253,3.9271,3.9272,3.9278,3.9336,3.9335,3.9265,3.9267,3.9268,3.9269,0,0,0,0,0,0,0,3.93,3.9303,3.9347,3.9314,3.931,3.9289,3.9288,3.9324,3.9293,3.9278,3.9272,3.9272,3.9269,3.9276,3.9277,3.9335,3.9265,3.9268,3.9269,3.927,3.9456,3.9459,0,0,0,0,0,0,3.9304,3.9303,3.9347,3.9347,3.9296,3.9293,3.9291,3.9306,3.9292,3.9287,3.9275,3.9268,3.9273,3.9274,3.9277,3.9367,3.9268,3.9271,3.9272,3.9453,3.9456,3.946,0,0,0,0,0,0,3.9303,3.9309,3.9347,3.9323,3.9327,3.9297,3.9314,3.9307,3.9314,3.929,3.9284,3.9288,3.927,3.9273,3.9321,3.9366,3.9272,3.9274,3.9449,3.9454,3.9458,3.955,0,0,0,0,0,0,3.9302,3.9309,3.9339,3.9325,3.9328,3.9392,3.9317,3.931,3.9319,3.9311,3.9301,3.9296,3.9268,3.9318,3.9324,3.9368,3.9276,3.9444,3.9451,3.9457,3.9543,3.9558,3.957,0,0,0,0,0,3.93,3.9366,3.9341,3.9347,3.9365,3.9395,3.9397,3.9363,3.9323,3.9353,3.9337,3.9296,3.936,3.9323,3.933,3.9376,3.9441,3.9449,3.9456,3.9537,3.9555,3.957,0,0,0,0,0,0,3.9387,3.9363,3.9336,3.9399,3.9399,3.9381,3.9418,3.9383,3.9396,3.9387,3.9345,3.9343,3.9398,3.9392,3.9351,3.9451,3.9394,3.9403,3.9453,3.947,3.9483,3.9483,3.9279,0,0,0,0,0,3.9414,3.944,3.9417,3.9475,3.9477,3.9448,3.9459,3.9433,3.9432,3.9432,3.942,3.9421,3.944,3.9455,3.9472,3.9542,3.9538,3.9576,3.959,3.9601,3.961,3.9645,3.9661,3.9484,3.9484,3.9484,0,0,3.9469,3.9459,3.9478,3.9492,3.949,3.9517,3.9448,3.9481,3.9501,3.9437,3.9481,3.9473,3.9471,3.953,3.9555,3.9526,3.9657,3.9611,3.962,3.9622,3.9654,3.9671,3.9686,3.9489,3.9488,3.9488,0,0,3.9583,3.9579,3.9626,3.9624,3.9621,3.9601,3.9612,3.9599,3.959,3.9634,3.9586,3.9609,3.9645,3.9645,3.965,3.9763,3.9726,3.977,3.9841,3.9876,3.989,3.9902,3.9942,3.9956,3.9778,3.9779,3.9779,0,3.9652,3.9692,3.9654,3.9689,3.9697,3.9639,3.9686,3.9687,3.969,3.9696,3.9663,3.9706,3.9701,3.9758,3.9786,3.9792,3.9803,3.9771,3.9891,3.9903,3.9913,3.9951,3.9966,3.9784,3.9783,3.9783,3.9782,0,3.9776,3.9805,3.9843,3.9846,3.9858,3.9899,3.9867,3.9883,3.9856,3.9839,3.9884,3.9875,3.9889,3.9901,3.9875,3.9955,3.9937,3.9898,3.984,3.9936,3.997,3.9984,3.9792,3.979,3.9788,3.9787,0,0,3.9946,3.9927,3.9942,3.9942,3.9933,3.9954,3.9992,4.0005,4.002,4.0024,4.0054,4.0085,4.0049,4.0054,4.0028,4.0059,4.0147,4.0016,4.0015,4.004,4.0234,4.0262,4.028,4.0123,4.0125,4.0127,4.0234,0,4.0056,4.0119,4.0086,4.0154,4.0179,4.0124,4.0157,4.0155,4.014,4.0159,4.0143,4.0165,4.0116,4.0119,4.0147,4.0131,4.0186,4.0123,4.015,4.0152,4.0152,4.0298,4.0328,4.0429,4.0247,4.0249,4.0251,0,4.0193,4.0201,4.0271,4.0257,4.0266,4.0296,4.0305,4.0324,4.032,4.0307,4.0313,4.0278,4.0314,4.0257,4.0305,4.0263,4.0273,4.0266,4.0269,4.027,4.0207,4.0302,4.046,4.0475,4.0272,4.027,4.0269,0,4.0309,4.0337,4.0383,4.0385,4.0369,4.0391,4.0386,4.0379,4.0389,4.0396,4.0402,4.0414,4.0421,4.0431,4.0401,4.0362,4.0453,4.0393,4.0443,4.0444,4.0464,4.0463,4.0626,4.0472,4.0471,4.0471,4.0471,0,4.0434,4.0479,4.0434,4.0462,4.051,4.0471,4.052,4.0509,4.0503,4.0528,4.0482,4.0506,4.0464,4.0484,4.0461,4.0504,4.0508,4.0498,4.0491,4.0501,4.0503,4.0507,4.0499,4.0475,4.0474,4.0473,4.0473,0,4.0572,4.0544,4.0589,4.057,4.0566,4.0603,4.0586,4.0611,4.0592,4.0624,4.0629,4.06,4.0621,4.0592,4.061,4.0594,4.0653,4.0636,4.0654,4.0649,4.07,4.0695,4.087,4.0891,4.0724,4.0726,4.0727,0,4.0654,4.0687,4.0671,4.0683,4.068,4.0702,4.0711,4.0673,4.0685,4.0682,4.0707,4.0724,4.0735,4.0771,4.0752,4.0766,4.0748,4.0808,4.075,4.0759,4.0748,4.0746,4.0749,4.082,4.0822,4.0824,4.0825,0,4.0802,4.0786,4.08,4.081,4.0822,4.0828,4.083,4.0844,4.0804,4.0819,4.0839,4.0848,4.0866,4.0883,4.0891,4.0885,4.0849,4.0844,4.0856,4.0867,4.0876,4.0871,4.0686,4.084,4.0839,4.0838,4.0837,4.0836,4.0913,4.094,4.0932,4.0949,4.0947,4.095,4.0972,4.0956,4.0972,4.0983,4.0959,4.0985,4.098,4.0987,4.0985,4.1005,4.0979,4.0996,4.1001,4.1005,4.1013,4.0873,4.1006,4.1006,4.1006,4.1005,4.1005,0,4.1058,4.105,4.1067,4.1071,4.1084,4.1048,4.1049,4.1063,4.1086,4.1083,4.1095,4.1118,4.1134,4.1116,4.1128,4.1148,4.1131,4.1152,4.115,4.1149,4.1036,4.1024,4.1165,4.1165,4.1165,4.1165,4.1165,4.1165,4.1135,4.1177,4.116,4.12,4.1191,4.1216,4.1219,4.1221,4.1219,4.1246,4.1259,4.1247,4.1238,4.1249,4.1262,4.1257,4.1263,4.129,4.1279,4.1173,4.1157,4.1142,4.1131,4.1292,4.1292,4.139,4.1391,4.1391]}]]